New Bern, NC

4:02 AM EDT on August 25, 2016 (GMT -0400)
Craven County Regional

Weather History for KEWN - December, 2011

Change the Weather History Date:

Thursday, December 15, 2011

  Actual Average Record
Temperature  
Mean Temperature 55 °F 47 °F  
Max Temperature 72 °F 57 °F 81 °F (1971)
Min Temperature 38 °F 36 °F 12 °F (1962)
Degree Days  
Heating Degree Days 10 18  
Month to date heating degree days 220 248  
Since 1 July heating degree days 612 675  
Cooling Degree Days 0 0  
Month to date cooling degree days 0 0  
Year to date cooling degree days 2213 1900  
Growing Degree Days 4 (Base 50)    
Moisture  
Dew Point 47 °F    
Average Humidity 69    
Maximum Humidity 93    
Minimum Humidity 44    
Precipitation  
Precipitation 0.00 in 0.10 in 1.32 in (1976)
Month to date precipitation 0.21 1.63  
Year to date precipitation 39.37 50.98  
Snow  
Snow 0.00 in - - ()
Month to date snowfall 0.0  
Since 1 July snowfall 0.0  
Snow Depth 0.00 in    
Sea Level Pressure  
Sea Level Pressure 30.24 in    
Wind  
Wind Speed 5 mph (SSW)    
Max Wind Speed 15 mph    
Max Gust Speed 21 mph    
Visibility 9 miles    
Events      
T = Trace of Precipitation, MM = Missing Value Source: NWS Daily Summary

Daily Weather History Graph

Daily Weather History Graph

Search for Another Location

Airport or City:

Trip Planner

Search our weather history database for the weather conditions in past years. The results will help you decide how hot, cold, wet, or windy it might be!

Date:

Astronomy

Dec. 15, 2011 Rise Set
Actual Time 7:08 AM EST 4:57 PM EST
Civil Twilight 6:40 AM EST 5:25 PM EST
Nautical Twilight 6:08 AM EST 5:57 PM EST
Astronomical Twilight 5:38 AM EST 6:28 PM EST
Moon 10:11 PM EST (12/15) 10:32 AM EST (12/15)
Length of Visible Light 10h 45m
Length of Day
9h 48m
Waning Gibbous, 75% of the Moon is Illuminated
Dec 15
Waning Gibbous
Dec 17
Last Quarter
Dec 24
New
Jan 1
First Quarter
Jan 9
Full

Hourly Weather History & Observations

Time (EST) Temp. Dew Point Humidity Pressure Visibility Wind Dir Wind Speed Gust Speed Precip Events Conditions
12:54 AM 41.0 °F 37.9 °F 89% 30.35 in - Calm Calm - N/A   Clear
1:54 AM 39.9 °F 37.0 °F 89% 30.32 in - Calm Calm - N/A   Clear
2:54 AM 37.9 °F 36.0 °F 93% 30.31 in - Calm Calm - N/A   Clear
3:54 AM 39.0 °F 36.0 °F 89% 30.30 in - Calm Calm - N/A   Clear
4:54 AM 39.0 °F 37.9 °F 96% 30.31 in - Calm Calm - N/A   Clear
5:54 AM 39.0 °F 36.0 °F 89% 30.31 in 3.0 mi Calm Calm - N/A   Clear
6:54 AM 39.2 °F 35.6 °F 87% 30.31 in 3.0 mi Calm Calm - N/A   Clear
7:54 AM 41.0 °F 39.9 °F 96% 30.32 in 7.0 mi Calm Calm - N/A   Clear
8:54 AM 48.0 °F 45.0 °F 89% 30.33 in 5.0 mi Calm Calm - N/A   Clear
9:54 AM 57.2 °F 48.2 °F 72% 30.32 in 10.0 mi Calm Calm - N/A   Clear
10:54 AM 64.9 °F 50.0 °F 58% 30.30 in 10.0 mi SW 9.2 mph - N/A   Clear
11:54 AM 68.0 °F 50.0 °F 52% 30.27 in - WSW 6.9 mph - N/A   Clear
12:54 PM 70.0 °F 51.1 °F 51% 30.22 in 10.0 mi SSW 13.8 mph 19.6 mph N/A   Clear
1:54 PM 71.1 °F 48.9 °F 45% 30.19 in 10.0 mi WSW 11.5 mph 19.6 mph N/A   Clear
2:54 PM 71.1 °F 48.0 °F 44% 30.17 in 10.0 mi SSW 11.5 mph - N/A   Clear
3:54 PM 69.1 °F 54.0 °F 58% 30.17 in 10.0 mi South 10.4 mph - N/A   Clear
4:54 PM 64.0 °F 54.0 °F 70% 30.17 in 10.0 mi South 9.2 mph - N/A   Clear
5:54 PM 61.0 °F 54.0 °F 78% 30.17 in 10.0 mi South 6.9 mph - N/A   Clear
6:54 PM 60.1 °F 53.1 °F 78% 30.17 in 10.0 mi SSW 5.8 mph - N/A   Clear
7:54 PM 59.0 °F 53.1 °F 81% 30.16 in 10.0 mi South 8.1 mph - N/A   Clear
8:54 PM 60.1 °F 54.0 °F 80% 30.14 in 10.0 mi SSW 9.2 mph - N/A   Clear
9:54 PM 59.0 °F 54.0 °F 83% 30.15 in 10.0 mi SW 6.9 mph - N/A   Clear
10:54 PM 57.9 °F 54.0 °F 87% 30.16 in 10.0 mi SSW 6.9 mph - N/A   Clear
11:54 PM 59.0 °F 54.0 °F 83% 30.16 in 10.0 mi SSW 8.1 mph - N/A   Clear